Temperature
23 23 23 22 22 21 21 21 21 20 20 20 19 19 18 17 17 17 16 16 15 15 14 14 14 13 13 12 12 12 12 11 11 11 11 11 11 11 11 11 11 11 12 12
24 23 23 22 22 22 21 21 21 20 20 21 20 19 18 18 17 17 16 16 16 15 15 14 14 13 13 12 12 12 12 11 11 11 11 11 11 11 11 11 11 11 11 12
24 24 23 23 24 23 22 22 21 21 21 20 20 19 18 18 17 17 17 16 16 15 15 15 14 14 13 13 12 12 11 11 11 11 11 10 10 10 10 10 10 11 11 11
24 24 23 23 24 24 23 23 23 22 21 20 20 19 18 18 17 17 17 16 16 15 15 15 15 14 14 13 12 12 11 11 11 11 10 10 10 10 10 10 10 10 10 10
24 24 25 23 23 23 22 22 23 22 22 21 20 19 19 18 17 17 16 16 16 15 15 15 14 14 14 13 12 12 11 11 11 11 10 10 10 10 10 10 10 10 10 10
23 23 24 24 24 23 23 22 24 23 22 21 20 19 19 18 17 17 16 16 15 15 15 15 14 14 14 13 13 12 11 11 11 11 10 10 10 10 10 10 10 10 10 10
22 23 25 23 23 22 21 23 24 23 22 21 20 20 19 18 17 17 16 15 15 15 15 15 14 14 14 13 12 12 11 11 11 11 10 10 10 10 10 10 10 10 10 10
24 23 23 22 22 22 23 23 23 23 22 21 20 19 18 18 17 17 16 16 15 15 15 14 14 14 14 13 12 12 11 11 11 11 11 10 10 10 10 10 10 10 10 9
25 24 23 22 23 23 24 23 23 22 22 21 20 19 18 18 17 17 16 16 16 15 15 15 14 14 14 13 12 12 11 11 11 11 11 10 10 10 10 10 9 9 9 9
24 25 25 23 23 23 23 22 23 22 21 21 20 19 18 18 17 17 17 16 16 15 15 15 15 14 14 13 13 12 12 12 12 11 11 11 10 10 10 10 10 10 10 10
24 25 26 25 24 23 22 22 22 22 21 20 20 19 18 18 18 17 17 17 16 16 16 15 15 14 14 13 13 13 13 13 12 12 11 11 11 10 10 10 10 10 10 10
24 26 26 25 24 23 22 22 21 21 21 20 20 19 19 18 18 17 17 17 16 16 16 16 15 15 14 14 13 13 14 13 13 12 12 11 11 11 11 10 10 11 11 11
26 25 25 24 24 23 22 22 21 21 20 20 19 19 19 18 18 18 17 17 17 16 16 16 15 15 15 14 14 13 13 13 13 12 12 12 11 11 11 11 11 11 11 11
25 24 24 24 23 23 22 21 21 20 20 20 19 19 19 18 18 18 17 17 17 17 16 16 16 15 15 14 14 14 13 13 13 13 12 12 12 12 11 11 11 11 11 11
23 23 23 23 23 22 22 21 21 20 20 20 19 19 18 18 18 18 17 17 17 17 16 16 16 15 15 15 14 14 14 13 13 13 12 12 12 12 12 12 12 11 11 11
20 21 22 21 21 22 21 21 21 20 20 20 19 19 18 18 18 18 17 17 17 17 17 16 16 16 15 15 15 14 14 14 13 13 13 12 12 12 12 12 12 12 11 11
16 17 18 19 20 20 21 21 21 20 20 20 19 19 18 18 18 18 17 17 17 17 17 16 16 16 16 16 15 15 14 14 14 13 13 13 13 13 13 13 12 12 12 12
14 15 15 16 18 18 20 20 21 20 20 20 20 19 19 18 18 17 17 17 17 16 16 16 16 16 16 16 15 15 14 14 14 14 13 13 13 13 13 13 13 13 12 12
12 13 14 15 16 17 18 19 20 20 20 20 20 19 19 18 18 18 17 17 17 16 17 16 16 16 16 16 16 15 15 14 14 14 13 13 13 13 13 13 13 13 13 12
11 12 12 13 14 15 16 17 18 19 20 20 20 20 19 19 18 18 17 17 17 17 17 16 16 16 16 16 15 15 15 14 14 13 13 13 13 13 13 13 13 13 13 13
10 11 11 12 13 14 15 16 17 18 19 19 19 19 19 19 18 18 17 17 17 17 17 16 16 16 16 16 15 15 15 14 14 14 13 13 13 13 13 13 13 13 13 13
10 10 10 10 11 12 13 15 16 17 18 18 19 19 19 19 18 18 17 17 17 17 17 16 16 16 16 15 15 15 15 14 14 14 13 13 13 13 13 13 13 13 13 13
9 9 9 9 10 10 12 13 14 15 16 17 17 18 18 18 18 18 17 17 17 17 16 16 16 16 15 15 15 15 15 14 14 14 14 13 13 13 13 13 13 13 13 13
8 8 8 8 8 9 10 10 11 13 14 15 16 16 16 17 17 17 17 17 17 16 16 16 15 15 15 15 15 14 14 14 14 14 13 13 13 13 13 13 13 13 13 13
7 7 7 7 7 7 7 8 9 10 11 12 13 14 15 15 15 16 16 16 16 16 16 15 15 15 15 14 14 14 14 14 14 14 13 13 13 13 13 13 13 13 13 13
6 6 6 6 6 6 6 6 7 7 8 9 10 11 12 13 14 14 15 15 15 15 15 15 15 15 14 14 14 14 14 14 14 13 13 13 13 13 13 13 13 13 13 12
5 5 5 5 5 5 5 5 5 6 6 7 8 8 9 10 11 12 13 13 14 14 14 14 14 14 14 14 14 14 14 14 13 13 13 13 13 13 13 13 13 13 13 12
Wind_Speed
2 1 2 3 3 4 5 6 5 4 3 1 4 3 1 1 1 2 3 4 4 4 4 4 4 5 5 5 6 6 7 8 8 8 8 8 9 9 9 10 11 10 10 10
5 5 5 8 8 7 6 6 5 4 4 4 5 4 2 1 1 2 3 5 4 4 4 4 4 5 5 5 6 6 7 7 7 8 8 8 8 8 9 9 9 9 9 9
4 6 6 7 7 9 7 6 5 5 2 8 5 4 2 1 0 1 2 3 4 4 4 3 4 5 4 4 5 7 7 7 7 8 8 8 9 8 8 8 8 8 9 8
7 5 5 4 3 3 6 7 7 5 3 6 4 4 3 2 1 1 3 4 4 4 4 4 5 4 3 4 6 7 6 6 7 7 7 7 7 7 7 6 7 7 7 8
4 6 3 6 4 4 4 6 9 9 7 7 6 5 6 6 3 2 3 2 3 3 3 5 5 4 4 6 7 6 6 6 7 7 7 7 7 6 5 5 5 6 6 7
5 5 3 6 8 5 3 5 9 11 10 10 8 5 5 9 7 5 3 2 2 3 3 4 4 3 4 5 6 6 6 6 6 5 6 7 7 6 4 4 4 4 5 6
6 5 2 8 8 6 2 3 6 9 10 11 10 3 7 10 8 6 5 2 1 1 3 3 3 3 5 6 7 6 5 5 5 5 5 5 5 5 5 5 5 4 5 5
4 4 1 10 7 5 2 4 3 6 9 10 8 8 9 8 8 6 6 5 2 1 2 2 1 2 5 6 5 4 3 3 3 4 5 5 4 5 5 5 5 5 5 5
3 2 6 8 7 6 4 2 3 6 7 10 9 9 8 8 7 6 5 5 4 2 1 2 3 2 3 5 3 3 2 1 0 2 3 4 5 5 5 6 6 5 5 5
5 5 5 10 10 7 5 5 3 5 8 9 9 9 9 8 7 7 6 5 5 4 4 3 4 3 3 4 3 4 3 2 0 3 4 4 4 5 5 5 6 6 6 6
6 8 5 6 9 9 7 7 6 6 8 9 10 10 10 8 8 7 6 6 5 4 2 2 4 4 4 4 4 4 4 4 3 3 2 2 3 3 4 4 3 3 4 5
4 4 3 2 5 8 9 9 8 8 8 9 10 10 10 9 8 7 7 7 6 5 4 4 5 5 6 4 4 5 2 2 2 3 2 1 3 3 3 3 4 4 3 4
7 6 5 4 1 4 8 10 10 9 9 9 10 10 10 8 8 8 7 7 7 7 7 6 4 4 6 6 4 5 3 2 3 1 1 2 2 3 3 2 1 1 0 2
5 6 7 5 5 5 7 9 10 11 11 10 10 10 9 9 9 9 9 8 7 7 7 6 5 5 5 6 5 5 4 2 2 2 2 2 1 1 1 3 4 4 4 5
12 9 7 6 6 5 5 7 9 11 11 12 11 11 11 10 10 10 9 8 8 8 7 7 7 6 6 6 5 6 5 3 3 2 3 3 3 3 3 3 3 4 4 4
15 11 9 8 8 7 7 8 10 11 11 12 12 12 12 11 9 9 9 9 9 9 8 8 8 7 7 7 6 5 3 3 3 2 3 4 4 4 3 3 3 3 4 5
16 14 13 13 12 10 9 9 10 11 12 12 12 12 12 12 11 10 10 10 10 9 8 9 8 8 8 8 7 5 5 6 8 4 4 5 4 4 4 4 3 3 3 5
15 15 14 14 13 13 12 11 11 12 11 11 12 13 14 14 14 12 11 10 10 10 9 8 8 8 9 8 7 5 5 5 6 6 6 6 5 4 4 4 4 4 4 5
16 17 17 17 16 15 13 12 11 11 11 11 12 13 14 14 13 12 12 12 12 12 11 9 11 10 9 10 8 5 5 5 5 6 6 7 5 4 4 5 5 5 5 6
16 17 17 17 17 16 15 14 13 11 10 10 11 12 14 14 13 12 13 13 12 10 10 10 10 9 9 10 11 6 6 6 6 5 5 5 6 6 6 6 6 5 5 5
16 17 18 18 18 17 16 16 13 11 10 9 10 11 12 12 12 13 12 11 10 11 11 13 10 9 9 8 12 8 7 7 6 6 6 5 6 6 6 6 6 6 5 5
15 16 17 18 18 18 17 16 15 14 11 9 8 9 9 10 12 12 13 10 8 13 11 9 8 10 12 11 8 8 7 7 6 5 5 5 5 5 5 6 5 5 5 5
14 15 16 17 17 18 18 17 17 15 13 10 8 8 8 8 8 9 10 8 8 13 11 9 12 15 16 10 8 8 8 8 7 6 6 6 6 5 5 6 5 4 4 4
13 14 14 15 15 16 17 18 18 16 16 12 9 8 7 6 6 7 7 10 14 15 11 12 18 18 17 10 8 8 8 8 8 7 7 6 6 6 5 5 5 4 4 5
12 12 13 13 13 12 14 16 17 17 17 15 15 13 9 6 5 5 5 7 11 14 10 13 18 18 14 9 9 9 8 8 8 8 7 6 6 5 5 4 4 4 5 5
11 10 9 10 9 9 10 11 11 12 13 14 14 13 12 9 8 6 4 3 7 10 9 8 10 13 11 10 10 9 9 8 8 8 8 7 7 6 6 6 7 5 5 5
11 9 7 7 7 8 9 9 10 10 11 12 13 13 13 13 11 10 8 5 1 3 5 5 7 9 9 9 9 9 8 7 7 7 8 8 7 7 7 8 6 6 5 5
Wind_Direction
62 23 319 294 273 255 270 303 324 11 352 107 127 130 121 119 1 356 13 28 29 33 32 26 26 33 40 25 23 34 38 35 30 32 32 28 29 29 29 29 31 32 34 34
235 207 246 262 248 237 250 261 272 280 275 132 123 141 178 169 35 6 27 28 22 36 33 23 39 41 41 32 30 39 43 40 33 34 31 28 28 29 33 32 29 30 34 34
292 168 255 263 231 214 222 226 239 256 200 136 164 182 196 141 105 1 42 30 21 28 27 21 64 65 54 42 46 44 41 44 39 36 33 28 27 28 32 33 28 29 30 30
287 259 276 104 90 161 220 234 221 230 139 157 180 167 173 189 198 39 58 39 26 16 14 32 57 65 83 78 65 50 35 42 47 40 32 26 27 31 28 29 30 30 29 29
295 308 284 138 145 161 215 254 219 208 192 172 174 187 208 184 165 107 72 45 27 2 8 51 47 29 54 74 72 60 38 41 48 42 30 22 24 29 26 23 29 32 29 30
296 297 328 108 125 137 216 262 197 187 183 172 181 224 195 152 148 139 117 69 16 340 25 48 43 18 57 74 74 62 43 43 48 50 43 26 16 17 22 21 27 41 39 39
266 278 332 118 129 150 234 33 124 171 176 175 193 208 117 135 141 142 134 125 286 322 67 45 18 17 61 68 72 68 53 43 37 38 60 47 12 11 23 21 20 36 50 53
233 258 223 138 156 205 263 114 170 178 176 176 179 142 134 144 145 159 163 161 212 299 112 116 21 20 83 85 89 94 78 57 56 49 41 47 24 19 19 12 15 25 36 43
299 360 122 178 203 235 295 283 193 175 174 173 175 162 158 162 163 173 181 168 175 205 204 187 147 74 96 117 128 139 121 88 88 107 88 53 29 28 26 18 16 21 23 31
289 279 205 200 217 232 234 253 239 179 174 175 179 172 168 174 176 176 192 179 175 205 218 189 137 139 132 137 179 194 169 183 166 68 74 71 49 37 45 29 16 14 16 17
263 269 250 201 206 219 221 223 227 200 182 180 182 182 178 183 186 185 188 176 188 219 201 178 168 166 153 165 219 228 194 183 164 115 82 92 98 62 64 82 70 33 11 10
260 341 346 345 184 205 216 215 216 207 192 184 186 189 187 189 186 187 188 187 190 192 199 229 200 173 161 171 237 266 237 152 139 143 149 172 150 133 65 101 127 94 59 37
279 321 327 333 313 221 223 218 212 209 201 192 193 194 195 191 182 184 194 199 195 187 195 224 213 185 167 169 219 266 271 168 152 153 168 220 196 172 171 175 199 248 221 69
331 316 295 285 271 238 232 226 215 211 207 201 198 197 198 198 190 189 196 202 203 196 192 207 210 200 174 170 202 245 259 166 161 182 217 249 238 227 187 174 186 200 216 217
343 323 300 302 298 269 234 228 221 215 210 206 201 200 200 203 201 195 195 201 203 202 199 204 208 201 177 178 207 233 238 195 183 204 208 233 234 232 225 217 195 168 159 190
339 341 338 318 296 280 254 237 231 225 216 211 206 205 205 204 205 198 195 199 204 208 206 205 206 196 177 182 207 233 232 182 175 216 242 233 222 225 227 222 218 185 167 165
353 346 336 324 311 292 269 251 243 236 227 217 211 206 205 204 207 207 202 200 204 211 210 206 201 189 177 183 203 217 219 193 190 211 246 257 240 227 221 212 216 199 167 157
350 340 332 324 317 309 296 274 253 243 236 226 213 208 208 209 210 209 206 202 203 210 219 213 193 183 180 186 204 218 224 204 188 204 223 238 242 240 235 224 219 203 172 169
356 349 343 337 330 320 308 297 280 257 241 231 220 215 212 213 212 209 207 208 209 210 211 210 201 191 186 192 200 205 226 242 223 210 214 221 221 238 251 242 232 221 194 174
359 355 350 344 339 331 322 311 299 282 257 237 228 220 216 213 210 211 212 215 211 205 197 197 194 195 199 195 190 200 214 229 235 234 227 220 214 218 231 232 226 223 216 197
359 357 354 350 344 338 331 323 312 299 282 256 239 230 222 214 209 211 216 221 211 192 191 195 194 190 197 194 187 198 208 221 225 225 232 230 224 226 232 236 227 217 216 214
355 355 354 351 347 343 340 335 328 317 303 283 262 246 234 221 214 214 218 213 201 189 187 187 190 189 191 188 186 197 204 216 222 221 225 233 234 233 236 240 237 225 216 213
349 350 351 350 347 345 345 345 341 333 324 311 294 273 254 239 223 218 223 208 194 190 189 190 190 192 192 190 191 196 203 211 215 217 218 222 228 232 236 243 243 238 228 220
340 343 345 346 348 351 350 347 345 344 342 335 327 315 294 270 251 233 223 204 199 193 193 193 190 192 191 198 201 204 208 208 208 211 216 217 219 225 232 234 233 237 239 237
329 332 337 341 345 348 345 345 347 350 352 349 343 336 325 307 286 264 237 215 199 189 192 193 189 190 193 202 205 209 211 209 205 201 205 210 214 218 227 237 235 232 235 239
318 319 325 330 338 341 342 345 347 350 353 351 345 343 341 336 331 327 307 255 200 187 189 185 187 194 202 205 208 211 211 210 206 201 199 198 205 208 214 223 237 237 237 239
309 310 315 323 333 339 336 337 341 346 353 349 342 346 349 351 348 344 336 328 309 191 197 196 190 195 204 208 211 212 212 209 201 193 193 197 202 209 215 219 220 223 228 233
Height
1539 1540 1541 1542 1544 1546 1548 1547 1550 1549 1548 1546 1548 1552 1553 1555 1555 1554 1553 1552 1551 1549 1547 1545 1543 1541 1539 1536 1534 1531 1529 1526 1523 1521 1518 1516 1514 1512 1510 1508 1506 1505 1503 1502
1537 1537 1539 1540 1539 1542 1544 1545 1545 1546 1546 1543 1547 1550 1552 1553 1553 1553 1553 1552 1551 1549 1548 1546 1544 1542 1540 1538 1536 1533 1531 1528 1526 1523 1521 1518 1516 1514 1512 1510 1508 1507 1505 1504
1535 1533 1537 1537 1529 1534 1538 1537 1540 1544 1541 1542 1546 1548 1550 1551 1552 1552 1552 1552 1551 1550 1548 1546 1544 1543 1541 1539 1537 1535 1533 1531 1528 1526 1523 1521 1518 1516 1514 1512 1511 1509 1507 1506
1535 1534 1543 1534 1524 1527 1532 1533 1534 1536 1538 1542 1544 1547 1549 1550 1551 1551 1551 1551 1551 1550 1548 1547 1545 1544 1542 1540 1538 1537 1535 1533 1530 1528 1525 1523 1521 1519 1517 1515 1513 1511 1510 1508
1536 1538 1529 1531 1526 1528 1532 1532 1529 1532 1536 1540 1543 1545 1546 1548 1549 1550 1551 1551 1551 1550 1549 1547 1546 1545 1543 1542 1540 1538 1537 1535 1533 1530 1528 1525 1523 1521 1519 1518 1516 1514 1512 1511
1539 1543 1538 1530 1525 1527 1532 1532 1523 1527 1532 1537 1541 1544 1542 1544 1547 1549 1550 1550 1550 1549 1549 1548 1546 1545 1544 1542 1541 1539 1538 1536 1534 1532 1530 1528 1526 1524 1522 1520 1519 1517 1515 1513
1544 1542 1526 1526 1526 1530 1538 1531 1524 1526 1530 1535 1538 1541 1541 1543 1546 1548 1549 1549 1549 1549 1548 1548 1547 1546 1545 1543 1542 1540 1539 1538 1536 1534 1532 1530 1528 1526 1524 1523 1521 1520 1518 1516
1534 1538 1534 1526 1527 1529 1527 1524 1525 1527 1529 1533 1536 1539 1541 1543 1545 1547 1548 1548 1549 1549 1548 1548 1547 1546 1545 1543 1542 1541 1540 1539 1538 1536 1534 1532 1530 1528 1527 1525 1523 1522 1520 1518
1525 1527 1522 1523 1523 1524 1524 1524 1524 1526 1528 1531 1534 1537 1540 1542 1544 1545 1547 1547 1548 1548 1548 1547 1547 1546 1545 1544 1543 1542 1541 1540 1539 1538 1536 1534 1532 1530 1528 1526 1525 1524 1522 1521
1522 1517 1517 1518 1520 1521 1522 1523 1523 1525 1527 1529 1532 1535 1538 1540 1542 1544 1545 1546 1546 1547 1547 1547 1546 1546 1545 1544 1543 1542 1542 1541 1540 1539 1538 1536 1534 1532 1530 1528 1526 1525 1523 1522
1520 1516 1514 1515 1516 1517 1519 1521 1522 1523 1525 1527 1530 1532 1535 1537 1540 1541 1543 1544 1545 1545 1546 1546 1545 1545 1544 1543 1543 1543 1542 1541 1541 1540 1538 1537 1536 1534 1532 1530 1528 1527 1525 1524
1518 1513 1513 1513 1513 1514 1516 1517 1519 1521 1522 1524 1527 1529 1532 1534 1537 1539 1540 1542 1543 1543 1544 1544 1544 1544 1543 1542 1542 1542 1543 1542 1541 1540 1539 1538 1536 1535 1534 1532 1530 1528 1527 1526
1513 1513 1513 1513 1512 1512 1513 1514 1516 1518 1519 1521 1524 1526 1529 1531 1533 1535 1537 1539 1540 1541 1541 1542 1543 1543 1542 1541 1541 1541 1542 1541 1540 1540 1539 1538 1537 1536 1535 1534 1532 1531 1529 1528
1511 1511 1511 1511 1511 1511 1511 1511 1513 1514 1516 1518 1520 1523 1525 1527 1529 1531 1533 1535 1537 1538 1539 1540 1540 1540 1540 1540 1539 1539 1540 1540 1539 1538 1538 1538 1537 1536 1535 1534 1533 1532 1531 1529
1509 1509 1509 1509 1508 1508 1508 1509 1510 1511 1512 1514 1516 1518 1521 1523 1525 1527 1529 1531 1533 1534 1535 1536 1537 1537 1537 1537 1537 1537 1538 1538 1537 1537 1537 1536 1536 1536 1535 1534 1533 1532 1531 1530
1508 1507 1506 1506 1506 1506 1506 1506 1506 1507 1508 1510 1511 1513 1515 1518 1520 1523 1524 1526 1528 1529 1531 1532 1533 1534 1534 1534 1534 1535 1535 1535 1535 1535 1535 1535 1535 1535 1534 1534 1533 1532 1531 1530
1509 1507 1506 1505 1504 1503 1502 1502 1502 1503 1504 1505 1506 1508 1511 1513 1515 1517 1519 1521 1523 1525 1526 1528 1529 1530 1530 1530 1531 1531 1532 1532 1532 1532 1532 1532 1533 1533 1533 1533 1532 1532 1531 1530
1511 1509 1507 1505 1502 1500 1498 1498 1497 1498 1498 1500 1501 1503 1504 1506 1508 1510 1513 1515 1517 1519 1520 1522 1524 1525 1526 1526 1527 1527 1528 1529 1529 1529 1529 1529 1530 1530 1531 1531 1530 1530 1529 1528
1510 1507 1504 1501 1499 1497 1494 1493 1492 1492 1492 1494 1495 1496 1497 1499 1501 1504 1507 1509 1510 1511 1513 1516 1518 1519 1520 1521 1522 1523 1524 1525 1525 1525 1526 1526 1527 1527 1527 1527 1528 1528 1527 1526
1509 1506 1503 1499 1496 1493 1490 1488 1487 1486 1486 1487 1488 1489 1490 1491 1494 1497 1499 1500 1501 1503 1507 1510 1512 1513 1514 1516 1517 1518 1519 1519 1520 1521 1522 1522 1522 1523 1523 1524 1524 1524 1524 1524
1508 1505 1501 1497 1494 1491 1488 1485 1483 1482 1481 1481 1482 1482 1483 1485 1487 1489 1491 1492 1494 1497 1500 1502 1504 1506 1508 1510 1511 1512 1513 1514 1515 1516 1516 1517 1518 1518 1519 1519 1520 1520 1521 1521
1508 1504 1501 1497 1493 1489 1486 1483 1480 1478 1476 1475 1475 1476 1477 1478 1480 1481 1482 1484 1488 1491 1492 1494 1496 1499 1501 1503 1504 1505 1507 1508 1509 1510 1511 1512 1512 1513 1514 1515 1515 1516 1516 1516
1508 1505 1501 1497 1493 1489 1485 1481 1477 1475 1472 1471 1470 1470 1471 1472 1473 1474 1475 1477 1481 1483 1484 1486 1488 1491 1494 1495 1497 1498 1500 1501 1502 1503 1504 1505 1506 1507 1508 1509 1510 1510 1511 1511
1507 1504 1501 1497 1493 1488 1484 1479 1476 1472 1469 1467 1466 1465 1465 1466 1466 1467 1469 1471 1473 1474 1476 1478 1481 1483 1486 1488 1489 1491 1492 1493 1495 1496 1498 1499 1500 1501 1502 1503 1504 1504 1505 1506
1506 1503 1500 1496 1492 1489 1484 1480 1475 1471 1467 1464 1462 1461 1460 1460 1460 1461 1462 1463 1465 1466 1468 1470 1473 1475 1478 1479 1481 1483 1485 1486 1488 1489 1491 1492 1493 1494 1495 1497 1497 1498 1499 1499
1503 1500 1497 1495 1492 1488 1485 1481 1477 1473 1468 1463 1460 1458 1456 1455 1454 1454 1455 1456 1457 1459 1461 1463 1465 1467 1469 1471 1473 1475 1477 1479 1481 1482 1484 1485 1486 1487 1488 1490 1491 1492 1492 1493
1499 1497 1494 1492 1489 1486 1483 1480 1477 1473 1470 1465 1461 1458 1455 1452 1450 1449 1449 1450 1451 1452 1454 1456 1457 1459 1461 1463 1465 1468 1470 1472 1474 1475 1476 1478 1479 1480 1481 1483 1484 1485 1486 1486